Location: Chouzé
(47.2379°N, 0.1267°E)
Time: 06:19:16
(UTC+00:00)

Daily predictions for brighter satellites

Satellite Brightness Start Highest point End
(mag) Time Altitude Azimuth Time Altitude Azimuth Time Altitude Azimuth
Radarsat Rocket 4.2 17:37:21 10° SSE 17:43:35 76° ENE 17:50:42 10° NNW
ATLAS 2AS CENTAUR R/B 4.0 17:37:32 10° NW 17:44:05 45° WSW 17:50:16 10° S
Nadezhda 2 Rocket 4.4 17:38:45 10° N 17:44:55 72° E 17:51:00 10° SSE
Cosmos 1340 2.8 17:43:45 10° N 17:47:20 48° ENE 17:50:53 10° SSE
Cosmos 1844 Rocket 3.5 17:42:28 10° NNW 17:47:56 58° WSW 17:53:22 10° S
Cosmos 1461 4.2 17:49:30 10° WSW 17:53:36 40° NW 17:57:53 10° NNE
NOAA 6 4.2 17:49:07 10° SSE 17:54:17 85° WSW 17:59:30 10° NNW
CZ-4 R/B 2.9 17:52:07 10° ESE 17:54:46 17° ENE 17:57:24 10° NNE
RESURS DK-1 3.8 17:53:20 10° NW 17:57:14 42° WSW 18:01:07 10° S
SL-08 R/B 3.6 17:54:27 10° NNE 17:59:25 78° WNW 18:04:20 10° SSW
Cosmos 841 Rocket 3.6 17:56:04 10° NNW 18:01:22 88° WSW 18:06:36 10° SSE
Cosmos 1814 Rocket 4.3 17:56:23 10° NNW 18:01:36 48° ENE 18:06:44 10° SE
Cosmos 1869 3.2 18:01:56 10° N 18:05:53 88° ENE 18:09:51 10° S
Cosmos 2058 4.4 18:06:37 10° ESE 18:09:12 16° E 18:11:47 10° NE
DMSP B5D2-2 4.2 18:04:14 10° NNE 18:09:32 81° WNW 18:14:46 10° SSW
PSLV R/B 4.2 18:06:23 10° SE 18:09:48 37° ENE 18:13:19 10° N
ATLAS 5 CENTAUR R/B 3.9 18:08:58 10° NNW 18:11:05 13° NNE 18:13:20 10° NE
Cosmos 1850 Rocket 4.0 18:07:36 10° SSW 18:12:47 87° ESE 18:18:00 10° NNE
Cosmos 1386 Rocket 4.4 18:06:49 10° N 18:12:48 63° ENE 18:18:49 10° SSE
SKYMED 2 3.5 18:10:13 10° NNE 18:14:35 81° ESE 18:18:56 10° S
Okean O Rocket 2.6 18:10:57 10° ESE 18:14:37 26° ENE 18:18:19 10° N
YAOGAN 1 2.9 18:10:49 10° SE 18:14:53 42° ENE 18:18:58 10° N
Cosmos 2219 Rocket 2.1 18:09:35 10° SSW 18:15:08 72° ESE 18:20:45 10° NNE
CZ-4B R/B 3.5 18:11:12 10° SE 18:16:16 43° ENE 18:21:27 10° N
Meteor 1-27 4.4 18:10:30 10° NNW 18:16:16 81° W 18:21:55 10° S
BlueWalker 3 2.1 18:12:50 10° WNW 18:16:41 60° NNE 18:19:40 16° ESE
Cosmos 2360 Rocket 3.0 18:13:43 10° SW 18:19:15 54° WNW 18:24:50 10° NNE
Cosmos 1356 3.7 18:17:24 10° N 18:20:15 34° ENE 18:23:05 10° SE
Cosmos 1606 2.8 18:17:46 10° N 18:21:32 52° ENE 18:25:15 10° SSE
CZ-4B DEB 4.2 18:16:27 10° SSE 18:21:54 86° ENE 18:27:25 10° NNW
Cosmos 2058 Rocket 3.3 18:17:48 10° NNW 18:22:14 75° W 18:26:40 10° S
Lacrosse 5 3.0 18:18:06 10° W 18:22:48 35° NNW 18:27:06 12° NE
Cosmos-2242 3.7 18:19:13 10° N 18:23:00 30° ENE 18:26:45 10° SE
Cosmos 1745 Rocket 3.9 18:17:13 10° N 18:23:27 71° E 18:29:35 10° SSE
Okean 1-7 Rocket 3.8 18:19:43 10° SSE 18:23:57 47° E 18:28:17 10° NNE
Cosmos 1741 Rocket 4.2 18:19:11 10° SSW 18:24:30 80° WNW 18:29:52 10° NNE
CZ-4B R/B 4.3 18:21:50 10° S 18:25:31 40° W 18:29:04 10° NNW
Okean-O 4.4 18:28:31 14° NE 18:28:31 14° NE 18:30:11 10° NNE
Cosmos 1633 4.2 18:27:01 10° SW 18:30:04 32° WNW 18:33:08 10° N
BREEZE-M DEB (TANK) 4.0 18:14:15 10° SW 18:30:21 66° SSE 18:33:28 21° E
Cosmos 2237 Rocket 3.2 18:27:13 10° SSE 18:31:42 24° ESE 18:33:55 19° ENE
NOSS 8 (A) 4.3 18:28:04 10° SSW 18:31:55 70° SE 18:33:43 23° NE
Cosmos 1400 Rocket 4.5 18:30:48 10° SE 18:32:08 16° ESE 18:32:08 16° ESE
Cosmos 968 Rocket 3.6 18:29:33 10° S 18:34:37 55° ESE 18:39:46 10° NNE
MINOTAUR 4 R/B 4.4 18:31:49 12° NNE 18:34:42 38° E 18:37:54 10° S
Lacrosse 5 rocket 4.0 18:32:55 10° W 18:35:07 15° SW 18:37:20 10° SSW
Cosmos 2278 Rocket 2.4 18:30:28 10° NNW 18:35:58 48° NE 18:41:02 12° SE
Cosmos 2322 Rocket 3.9 18:31:10 10° WSW 18:36:06 31° NW 18:41:05 10° NNE
SJ-6B 4.0 18:36:32 24° ENE 18:36:32 24° ENE 18:39:43 10° NNE
Cosmos 1709 Rocket 3.9 18:35:01 10° N 18:41:05 62° ENE 18:47:07 10° SSE
Cosmos 1980 4.4 18:37:59 10° SSE 18:42:52 31° ESE 18:45:15 23° ENE
Cosmos 2208 Rocket 4.1 18:39:58 10° NNW 18:45:03 53° ENE 18:49:56 11° SE
CSL-04 Rocket 4.4 18:43:56 23° ESE 18:46:05 31° ENE 18:50:48 10° N
Cosmos 2369 Rocket 4.1 18:44:18 10° N 18:46:20 12° NNE 18:46:47 12° NE
USA 81 4.0 18:41:13 10° S 18:46:26 69° E 18:51:42 10° N
Iridium 2 3.4 18:43:47 10° N 18:47:25 68° E 18:51:02 10° SSE
Cosmos 1943 Rocket 3.2 18:42:47 10° N 18:47:30 26° NE 18:48:39 24° ENE
Cosmos 2333 Rocket 3.1 18:43:18 10° SW 18:48:47 49° NW 18:54:19 10° NNE
Cosmos 1570 Rocket 3.9 18:45:50 10° NNW 18:51:13 75° ENE 18:56:31 10° SSE
MOS 1-B 4.3 18:47:53 10° SSE 18:53:42 89° ENE 18:59:34 10° NNW
Cosmos 1602 Rocket 3.4 18:49:34 10° S 18:53:50 64° E 18:58:07 10° NNE
IGS 5A 3.7 18:52:10 27° SE 18:53:56 44° ENE 18:57:52 10° N
Cosmos 1356 Rocket 3.3 18:50:15 10° S 18:54:05 52° E 18:56:49 18° NNE
Cosmos 44 Rocket 4.3 18:50:20 10° WSW 18:54:48 42° NW 18:59:08 11° NNE
CZ-4C R/B 4.4 18:51:37 10° N 18:55:07 42° WNW 18:58:27 10° SW
Cosmos 883 Rocket 4.4 18:53:16 10° S 18:59:33 78° E 19:05:54 10° NNE
Spot 1 4.0 18:59:32 27° NE 19:01:30 53° ESE 19:05:31 10° S
COSMO-SKYMED 1 4.3 18:58:28 10° N 19:02:24 34° WNW 19:06:20 10° SW
COSMOS 2428 2.7 18:57:25 10° SSW 19:03:05 82° WNW 19:08:49 10° NNE
Cosmos 2184 Rocket 4.5 18:59:31 10° N 19:05:14 36° ENE 19:06:16 34° E
SL-4 R/B 3.0 19:03:18 10° WNW 19:06:35 35° SW 19:08:15 23° SSE
Gblst 52 Del rocket 4.4 19:02:26 10° WNW 19:07:56 57° N 19:09:52 37° ENE
NOSS 0 Rocket 3.9 19:02:36 10° SSW 19:08:45 65° ESE 19:13:26 18° NE
Cosmos 1758 Rocket 3.4 19:04:32 10° S 19:08:52 79° E 19:13:16 10° NNE
SJ 16-02 3.7 19:05:26 10° SSE 19:05:27 10° SSE 19:05:27 10° SSE
Cosmos 1812 Rocket 3.5 19:05:29 10° N 19:09:58 84° W 19:14:23 10° S
Landsat 7 3.9 19:15:20 49° ENE 19:15:20 49° ENE 19:19:51 10° N
USA 215 3.9 19:10:17 10° SSE 19:16:39 53° SW 19:23:04 10° WNW
Meteor 2-2 Rocket 4.1 19:21:06 10° N 19:26:49 85° E 19:32:36 10° SSE
CZ-4 R/B 2.2 19:25:21 10° S 19:29:18 50° W 19:33:13 10° NNW
Lacrosse 4 Rocket 3.0 19:29:31 10° NNW 19:31:44 25° N 19:31:44 25° N
Resurs 01 Rocket 4.0 19:40:04 13° N 19:40:04 13° N 19:40:38 10° N
Cosmos 2285 Rocket 4.1 19:35:04 10° NNW 19:41:01 51° NE 19:41:01 51° NE
Cosmos 1486 Rocket 4.3 19:37:24 10° S 19:41:27 53° S 19:41:27 53° S
Cosmos 2058 3.8 19:41:33 10° SSW 19:45:35 48° WNW 19:48:30 18° N
Okean O Rocket 3.1 19:46:44 10° SSW 19:50:48 36° W 19:54:55 10° NNW
BlueWalker 3 3.7 19:51:40 10° WNW 19:54:29 29° WSW 19:54:29 29° WSW
ATLAS 5 CENTAUR R/B 3.4 19:52:31 10° NNW 19:55:18 26° N 19:55:18 26° N
Cosmos 2219 Rocket 4.2 19:55:13 10° W 19:59:40 24° NW 20:04:10 10° N
Okean-O 4.3 20:06:03 27° NNW 20:06:03 27° NNW 20:08:06 10° NNW
Lacrosse 5 3.4 20:02:33 10° NW 20:06:18 27° N 20:06:18 27° N
Cosmos 2237 Rocket 2.6 20:09:42 10° SW 20:15:19 59° WNW 20:15:51 57° NW
Cosmos 2278 Rocket 3.8 20:14:56 10° NW 20:19:50 31° WSW 20:23:00 18° SSW
Cosmos 909 Rocket 4.1 20:12:48 10° NW 20:19:28 79° NW 20:19:28 79° NW
Cosmos 1943 Rocket 3.0 20:26:06 10° NNW 20:30:12 46° NW 20:30:12 46° NW
Cosmos 2369 Rocket 4.0 20:26:30 10° NNW 20:28:35 22° N 20:28:35 22° N
BREEZE-M DEB (TANK) 4.2 20:23:11 10° SW 20:39:13 75° SSW 20:39:13 75° SSW
